N7NKE Weather Reports


Display with metric or nautical units.
time (UTC)temp
F
wind
direction
speed
MPH
gust
MPH
rain 1hr
in
rain 24hr
in
rain mn
in
humidity
%
barometer
mb
20260902105504 59 141 1.0 5.0 0.00 0.00 0.00 85 1009.5
20260902105004 59 182 1.0 2.0 0.00 0.00 0.00 85 1009.5
20260902104504 59 187 2.0 3.0 0.00 0.00 0.00 85 1009.6
20260902104004 59 198 0.0 2.0 0.00 0.00 0.00 85 1009.6
20260902103504 59 198 1.0 3.0 0.00 0.00 0.00 85 1009.7
20260902103005 58 181 2.0 3.0 0.00 0.00 0.00 85 1009.7
20260902102503 58 186 1.0 3.0 0.00 0.00 0.00 85 1009.7
20260902102004 58 205 1.0 2.0 0.00 0.00 0.00 85 1009.7
20260902101504 58 191 2.0 5.0 0.00 0.00 0.00 85 1009.8
20260902101004 58 188 0.0 2.0 0.00 0.00 0.00 85 1009.6
20260902100004 58 185 2.0 3.0 0.00 0.00 0.00 85 1009.7
20260902095504 58 190 1.0 3.0 0.00 0.00 0.00 85 1009.8
20260902095004 58 202 2.0 5.0 0.00 0.00 0.00 86 1009.8
20260902094504 58 210 2.0 5.0 0.00 0.00 0.00 86 1009.8
20260902092504 57 172 2.0 5.0 0.00 0.00 0.00 86 1010.0
20260902091504 57 185 1.0 2.0 0.00 0.00 0.00 86 1010.0
20260902090504 57 188 1.0 2.0 0.00 0.00 0.00 85 1010.3
20260902090005 57 195 1.0 2.0 0.00 0.00 0.00 85 1010.4
20260902085504 57 217 1.0 1.0 0.00 0.00 0.00 84 1010.3
20260902085004 58 233 1.0 2.0 0.00 0.00 0.00 84 1010.5
20260902084504 58 217 1.0 2.0 0.00 0.00 0.00 83 1010.4
20260902084004 59 183 0.0 1.0 0.00 0.00 0.00 83 1010.4
20260902083504 59 183 0.0 2.0 0.00 0.00 0.00 83 1010.4
20260902083005 59 183 1.0 2.0 0.00 0.00 0.00 83 1010.5
20260902082504 59 192 1.0 3.0 0.00 0.00 0.00 83 1010.5
20260902082004 59 200 2.0 3.0 0.00 0.00 0.00 83 1010.5
20260902081504 60 185 2.0 6.0 0.00 0.00 0.00 83 1010.5
20260902081004 60 201 3.0 6.0 0.00 0.00 0.00 83 1010.7
20260902080004 60 210 4.0 7.0 0.00 0.00 0.00 82 1010.6
20260902075504 60 202 3.0 7.0 0.00 0.00 0.00 82 1010.7
20260902075004 60 203 3.0 6.0 0.00 0.00 0.00 82 1010.7
20260902074504 60 202 3.0 6.0 0.00 0.00 0.00 81 1010.6
20260902074004 61 346 3.0 8.0 0.00 0.00 0.00 81 1010.6
20260902073504 61 226 3.0 9.0 0.00 0.00 0.00 80 1010.6
20260902073004 61 201 6.0 9.0 0.00 0.00 0.00 80 1010.7
20260902072504 61 191 6.0 12.0 0.00 0.00 0.00 79 1010.8
20260902072004 61 161 6.0 15.0 0.00 0.00 0.00 78 1010.8
20260902071504 61 179 6.0 10.0 0.00 0.00 0.00 78 1010.9
20260902071004 61 191 3.0 9.0 0.00 0.00 0.00 78 1010.8
20260902070504 61 205 5.0 12.0 0.00 0.00 0.00 78 1010.9
20260902070006 61 188 6.0 12.0 0.00 0.00 0.00 77 1011.0
20260902065504 61 165 4.0 7.0 0.00 0.00 0.00 77 1011.0
20260902065005 61 192 5.0 9.0 0.00 0.00 0.00 77 1011.0
20260902064504 61 194 5.0 9.0 0.00 0.00 0.00 77 1011.1
20260902064004 61 204 3.0 7.0 0.00 0.00 0.00 77 1011.0
20260902063005 61 204 2.0 5.0 0.00 0.00 0.00 77 1011.0
20260902062504 61 194 2.0 5.0 0.00 0.00 0.00 77 1011.0
20260902062004 61 217 2.0 5.0 0.00 0.00 0.00 77 1011.0
20260902061005 61 204 2.0 6.0 0.00 0.00 0.00 78 1011.0
20260902060004 61 183 0.0 2.0 0.00 0.00 0.00 78 1010.9
20260902055503 61 182 1.0 2.0 0.00 0.00 0.00 78 1011.0
20260902055004 61 163 1.0 2.0 0.00 0.00 0.00 78 1011.1
20260902054004 61 178 1.0 2.0 0.00 0.00 0.00 78 1011.2
20260902053504 61 194 1.0 2.0 0.00 0.00 0.00 78 1011.1
20260902053004 61 221 2.0 2.0 0.00 0.00 0.00 77 1011.2
20260902052504 61 223 1.0 2.0 0.00 0.00 0.00 76 1011.2
20260902051503 61 196 1.0 2.0 0.00 0.00 0.00 76 1011.3
20260902051004 62 206 1.0 2.0 0.00 0.00 0.00 75 1011.3
20260902050504 62 293 1.0 2.0 0.00 0.00 0.00 75 1011.3
20260902050007 62 209 1.0 3.0 0.00 0.00 0.00 75 1011.3
20260902045504 62 185 2.0 6.0 0.00 0.00 0.00 74 1011.3
20260902044003 62 207 1.0 5.0 0.00 0.00 0.00 73 1011.3
20260902043504 62 218 2.0 3.0 0.00 0.00 0.00 73 1011.4
20260902043004 62 246 2.0 5.0 0.00 0.00 0.00 73 1011.5
20260902042004 62 244 2.0 6.0 0.00 0.00 0.00 73 1011.5
20260902041505 62 248 3.0 6.0 0.00 0.00 0.00 73 1011.5
20260902041004 62 263 3.0 7.0 0.00 0.00 0.00 73 1011.6
20260902040504 62 247 1.0 5.0 0.00 0.00 0.00 73 1011.6
20260902040004 62 338 1.0 3.0 0.00 0.00 0.00 73 1011.5
20260902035504 62 273 1.0 3.0 0.00 0.00 0.00 73 1011.5
20260902035004 63 0 2.0 3.0 0.00 0.00 0.00 73 1011.4
20260902034504 63 0 2.0 3.0 0.00 0.00 0.00 73 1011.3
20260902033504 63 229 3.0 5.0 0.00 0.00 0.00 72 1011.2
20260902033004 63 237 2.0 3.0 0.00 0.00 0.00 72 1011.3
20260902032503 63 233 2.0 6.0 0.00 0.00 0.00 71 1011.2
20260902032004 63 239 3.0 7.0 0.00 0.00 0.00 71 1011.2
20260902031503 64 230 4.0 7.0 0.00 0.00 0.00 70 1011.2
20260902031004 64 233 5.0 8.0 0.00 0.00 0.00 70 1011.2
20260902030503 64 208 2.0 5.0 0.00 0.00 0.00 70 1011.2
20260902030004 64 212 2.0 5.0 0.00 0.00 0.00 70 1011.3
20260902025504 65 225 3.0 8.0 0.00 0.00 0.00 69 1011.2
20260902025004 65 209 3.0 8.0 0.00 0.00 0.00 68 1011.2
20260902024504 65 199 4.0 9.0 0.00 0.00 0.00 68 1011.2
20260902023504 65 197 3.0 6.0 0.00 0.00 0.00 68 1011.2
20260902023003 65 190 2.0 3.0 0.00 0.00 0.00 67 1011.0
20260902022503 65 201 3.0 5.0 0.00 0.00 0.00 68 1011.0
20260902022003 65 202 2.0 7.0 0.00 0.00 0.00 67 1011.1
20260902021504 65 214 2.0 6.0 0.00 0.00 0.00 67 1011.1
20260902021004 66 228 3.0 7.0 0.00 0.00 0.00 67 1011.1
20260902015503 66 237 3.0 6.0 0.00 0.00 0.00 68 1011.0
20260902015004 66 232 1.0 6.0 0.00 0.00 0.00 70 1011.0
20260902014503 66 208 2.0 3.0 0.00 0.00 0.00 69 1011.0
20260902013503 66 221 3.0 5.0 0.00 0.00 0.00 70 1011.1
20260902013003 66 139 0.0 2.0 0.00 0.00 0.00 74 1011.0
20260902012504 66 134 1.0 2.0 0.00 0.00 0.00 75 1011.0
20260902012004 66 355 0.0 2.0 0.00 0.00 0.00 75 1010.9
20260902011504 66 323 1.0 2.0 0.00 0.00 0.00 75 1011.0
20260902005505 66 243 3.0 5.0 0.00 0.00 0.00 71 1010.9
20260902005005 66 212 5.0 10.0 0.00 0.00 0.00 72 1010.9
20260902004005 66 245 3.0 8.0 0.00 0.00 0.00 72 1010.8
20260902003505 66 245 4.0 7.0 0.00 0.00 0.00 72 1010.8
20260902002505 66 216 2.0 3.0 0.00 0.00 0.00 72 1010.8
20260902002005 66 196 1.0 2.0 0.00 0.00 0.00 71 1010.8
20260902001505 66 189 1.0 2.0 0.00 0.00 0.00 70 1010.8
20260902001005 66 271 1.0 3.0 0.00 0.00 0.00 71 1010.8
20260902000005 65 232 3.0 6.0 0.00 0.00 0.00 72 1010.8
20260901235505 65 326 2.0 7.0 0.00 0.00 0.00 74 1010.8
20260901235005 65 281 3.0 7.0 0.00 0.00 0.00 74 1010.8
20260901234505 65 263 5.0 8.0 0.00 0.00 0.00 73 1011.0
20260901234006 66 260 5.0 10.0 0.00 0.00 0.00 73 1011.0
20260901233505 66 278 3.0 10.0 0.00 0.00 0.00 73 1011.0
20260901233005 66 218 6.0 10.0 0.00 0.00 0.00 72 1011.1
20260901232505 66 228 7.0 12.0 0.00 0.00 0.00 72 1011.0
20260901231505 66 240 6.0 10.0 0.00 0.00 0.00 70 1011.0
20260901231005 67 244 5.0 13.0 0.00 0.00 0.00 69 1011.0
20260901230506 68 247 9.0 14.0 0.00 0.00 0.00 68 1011.0
20260901230005 68 209 5.0 13.0 0.00 0.00 0.00 66 1011.0
20260901225505 68 174 5.0 12.0 0.00 0.00 0.00 66 1011.0
20260901224505 68 182 7.0 13.0 0.00 0.00 0.00 66 1011.0
20260901224004 67 168 7.0 12.0 0.00 0.00 0.00 66 1011.0
20260901223505 67 191 3.0 7.0 0.00 0.00 0.00 68 1011.0
20260901223006 67 216 3.0 7.0 0.00 0.00 0.00 67 1011.1
20260901222505 67 199 5.0 10.0 0.00 0.00 0.00 67 1011.1
20260901222005 67 201 5.0 9.0 0.00 0.00 0.00 67 1011.1
20260901221505 67 207 4.0 9.0 0.00 0.00 0.00 66 1011.0
20260901221005 68 191 6.0 14.0 0.00 0.00 0.00 66 1011.0
20260901220505 68 173 7.0 10.0 0.00 0.00 0.00 66 1010.9
20260901220005 68 197 6.0 10.0 0.00 0.00 0.00 66 1010.9
20260901215504 68 177 5.0 10.0 0.00 0.00 0.00 67 1010.9
20260901215005 68 199 5.0 8.0 0.00 0.00 0.00 68 1010.9
20260901214505 68 152 5.0 8.0 0.00 0.00 0.00 67 1010.9
20260901213505 68 169 4.0 12.0 0.00 0.00 0.00 68 1010.9
20260901213005 67 195 5.0 9.0 0.00 0.00 0.00 70 1010.9
20260901212504 67 173 6.0 10.0 0.00 0.00 0.00 70 1010.9
20260901212005 66 171 6.0 13.0 0.00 0.00 0.00 71 1011.0
20260901211505 66 124 3.0 8.0 0.00 0.00 0.00 72 1011.0
20260901211005 66 125 3.0 12.0 0.00 0.00 0.00 72 1011.0
20260901210505 67 158 7.0 14.0 0.00 0.00 0.00 70 1011.0
20260901210006 67 141 3.0 9.0 0.00 0.00 0.00 69 1011.0
20260901205505 67 196 6.0 10.0 0.00 0.00 0.00 69 1011.0
20260901205005 66 167 5.0 7.0 0.00 0.00 0.00 69 1011.0
20260901204505 66 206 4.0 8.0 0.00 0.00 0.00 69 1011.0
20260901204005 66 151 6.0 12.0 0.00 0.00 0.00 69 1011.1
20260901203504 66 171 5.0 8.0 0.00 0.00 0.00 68 1011.1
20260901203005 66 196 4.0 8.0 0.00 0.00 0.00 68 1011.1
20260901202505 67 183 5.0 13.0 0.00 0.00 0.00 68 1011.1
20260901202005 67 176 6.0 10.0 0.00 0.00 0.00 68 1011.1
20260901201505 67 186 5.0 8.0 0.00 0.00 0.00 68 1011.2
20260901201005 67 162 1.0 7.0 0.00 0.00 0.00 69 1011.2
20260901200504 66 196 3.0 8.0 0.00 0.00 0.00 70 1011.2
20260901200005 67 136 7.0 13.0 0.00 0.00 0.00 69 1011.2
20260901195505 67 96 1.0 5.0 0.00 0.00 0.00 69 1011.2
20260901195004 67 197 2.0 5.0 0.00 0.00 0.00 70 1011.2
20260901194505 66 150 2.0 5.0 0.00 0.00 0.00 70 1011.3
20260901194005 66 206 2.0 6.0 0.00 0.00 0.00 70 1011.4
20260901193505 66 211 4.0 7.0 0.00 0.00 0.00 70 1011.4
20260901193005 66 183 5.0 7.0 0.00 0.00 0.00 71 1011.5
20260901192005 66 204 5.0 9.0 0.00 0.00 0.00 72 1011.6
20260901191505 66 190 5.0 7.0 0.00 0.00 0.00 72 1011.6
20260901191005 65 201 3.0 6.0 0.00 0.00 0.00 73 1011.6
20260901190505 65 162 5.0 7.0 0.00 0.00 0.00 73 1011.6
20260901190005 65 153 5.0 8.0 0.00 0.00 0.00 74 1011.8
20260901185505 65 131 5.0 10.0 0.00 0.00 0.00 74 1011.8
20260901184505 65 199 4.0 8.0 0.00 0.00 0.00 74 1012.0
20260901184004 65 175 6.0 10.0 0.00 0.00 0.00 73 1011.9
20260901183505 65 197 3.0 8.0 0.00 0.00 0.00 72 1011.9
20260901183005 65 175 3.0 9.0 0.00 0.00 0.00 73 1011.9
20260901182505 66 137 4.0 8.0 0.00 0.00 0.00 72 1012.0
20260901182005 66 173 5.0 12.0 0.00 0.00 0.00 72 1011.9
20260901181505 66 162 3.0 8.0 0.00 0.00 0.00 72 1012.0
20260901181005 65 104 5.0 10.0 0.00 0.00 0.00 73 1012.0
20260901180505 64 195 6.0 8.0 0.00 0.00 0.00 75 1011.9
20260901175505 64 154 5.0 9.0 0.00 0.00 0.00 76 1011.9
20260901175005 64 134 6.0 9.0 0.00 0.00 0.00 75 1011.9
20260901174505 64 138 4.0 9.0 0.00 0.00 0.00 76 1011.9
20260901174008 63 190 5.0 12.0 0.00 0.00 0.00 76 1011.9
20260901173504 63 132 6.0 12.0 0.00 0.00 0.00 77 1011.9
20260901173005 63 132 3.0 8.0 0.00 0.00 0.00 78 1011.9
20260901172005 63 186 5.0 8.0 0.00 0.00 0.00 78 1012.0
20260901171504 62 188 5.0 9.0 0.00 0.00 0.00 78 1011.9
20260901171004 62 164 5.0 9.0 0.00 0.00 0.00 79 1011.9
20260901170505 62 188 6.0 9.0 0.00 0.00 0.00 80 1011.8
20260901170005 62 206 5.0 7.0 0.00 0.00 0.00 80 1011.8
20260901165505 62 205 6.0 9.0 0.00 0.00 0.00 80 1011.8
20260901165005 61 206 4.0 9.0 0.00 0.00 0.00 81 1011.8
20260901163505 61 188 3.0 9.0 0.00 0.00 0.00 82 1011.9
20260901163005 61 193 5.0 8.0 0.00 0.00 0.00 81 1011.9
20260901162005 61 199 4.0 6.0 0.00 0.00 0.00 82 1011.9
20260901161505 61 163 4.0 7.0 0.00 0.00 0.00 83 1011.9
20260901161005 60 164 2.0 5.0 0.00 0.00 0.00 83 1011.9
20260901160505 60 153 3.0 6.0 0.00 0.00 0.00 84 1012.0
20260901160005 60 162 3.0 6.0 0.00 0.00 0.00 84 1011.9
20260901155505 60 128 3.0 6.0 0.00 0.00 0.00 84 1012.0
20260901155005 60 196 2.0 5.0 0.00 0.00 0.00 84 1012.0
20260901154505 60 188 5.0 7.0 0.00 0.00 0.00 84 1012.0
20260901153505 60 153 3.0 6.0 0.00 0.00 0.00 83 1012.0
20260901153005 60 187 2.0 3.0 0.00 0.00 0.00 84 1012.0
20260901152504 59 191 2.0 3.0 0.00 0.00 0.00 84 1012.0
20260901151505 59 149 3.0 5.0 0.00 0.00 0.00 84 1012.0
20260901151004 59 191 2.0 2.0 0.00 0.00 0.00 84 1011.9
20260901150005 59 138 1.0 2.0 0.00 0.00 0.00 85 1011.8
20260901145506 59 288 0.0 2.0 0.00 0.00 0.00 86 1011.8
20260901145005 59 288 0.0 0.0 0.00 0.00 0.00 86 1011.8
20260901144505 59 288 0.0 2.0 0.00 0.00 0.00 86 1011.7
20260901144005 59 252 0.0 2.0 0.00 0.00 0.00 86 1011.6
20260901143505 59 252 0.0 2.0 0.00 0.00 0.00 86 1011.6
20260901143005 59 252 0.0 0.0 0.00 0.00 0.00 85 1011.7
20260901142504 59 252 0.0 0.0 0.00 0.00 0.00 85 1011.7
20260901142005 59 252 0.0 0.0 0.00 0.00 0.00 85 1011.6
20260901141504 59 252 0.0 0.0 0.00 0.00 0.00 85 1011.6
20260901141005 59 252 0.0 0.0 0.00 0.00 0.00 85 1011.5
20260901140505 59 252 0.0 0.0 0.00 0.00 0.00 85 1011.6
20260901140004 59 252 0.0 0.0 0.00 0.00 0.00 85 1011.5
20260901135505 58 252 0.0 0.0 0.00 0.00 0.00 85 1011.5
20260901134505 58 252 0.0 0.0 0.00 0.00 0.00 85 1011.4
20260901134005 58 252 0.0 0.0 0.00 0.00 0.00 85 1011.4
20260901133005 58 252 0.0 0.0 0.00 0.00 0.00 85 1011.4
20260901132505 58 252 0.0 0.0 0.00 0.00 0.00 85 1011.3
20260901132005 58 252 0.0 0.0 0.00 0.00 0.00 85 1011.3
20260901131006 58 252 0.0 0.0 0.00 0.00 0.00 85 1011.4
20260901130505 58 252 0.0 0.0 0.00 0.00 0.00 85 1011.3
20260901125505 58 252 0.0 0.0 0.00 0.00 0.00 85 1011.3
20260901125004 58 252 0.0 0.0 0.00 0.00 0.00 85 1011.2
20260901124506 58 252 1.0 2.0 0.00 0.00 0.00 85 1011.3
20260901124005 58 252 1.0 2.0 0.00 0.00 0.00 85 1011.2
20260901123004 58 252 0.0 0.0 0.00 0.00 0.00 86 1011.2
20260901122504 58 252 0.0 0.0 0.00 0.00 0.00 86 1011.2
20260901122005 58 252 0.0 0.0 0.00 0.00 0.00 86 1011.3
20260901121505 58 252 1.0 1.0 0.00 0.00 0.00 86 1011.2
20260901121005 58 252 0.0 0.0 0.00 0.00 0.00 86 1011.1
20260901120505 58 252 0.0 2.0 0.00 0.00 0.00 86 1011.1
20260901120004 58 252 0.0 0.0 0.00 0.00 0.00 86 1011.0
20260901115505 58 252 0.0 1.0 0.00 0.00 0.00 86 1011.0
20260901115005 57 252 0.0 2.0 0.00 0.00 0.00 86 1011.1
20260901114505 57 252 0.0 2.0 0.00 0.00 0.00 87 1011.2
20260901114005 57 229 1.0 2.0 0.00 0.00 0.00 87 1011.2
20260901113505 57 206 0.0 2.0 0.00 0.00 0.00 86 1011.2
20260901113005 57 206 1.0 2.0 0.00 0.00 0.00 86 1011.2
20260901112005 57 206 0.0 2.0 0.00 0.00 0.00 86 1011.0
20260901111504 57 202 0.0 0.0 0.00 0.00 0.00 86 1011.0
20260901111005 57 202 0.0 0.0 0.00 0.00 0.00 86 1011.0